GLO1425 SBCY-SBSP

Flight info

Callsign GLO1425
Flight time 1h 57m
Altitude 39000
Route DIKUN DCT ASDOV DCT UTLOT
Aircraft B738/M-SDE2E3FGHIRWXY/LB1

Departure

Time 2026-04-25 19:23
Airport Várzea Grande–Marechal Rondon International Airport (SBCY)

Arrival

Time 2026-04-25 21:21
Airport Congonhas–Deputado Freitas Nobre Airport (SBSP)
Time Latitude Longitude Altitude Speed Heading
2026-04-25 18:58 -15.65084 -56.11960 604 ft 0 kts 243°
2026-04-25 19:15 -15.65077 -56.11946 604 ft 3 kts 240°
2026-04-25 19:15 -15.65064 -56.11930 604 ft 3 kts 191°
2026-04-25 19:15 -15.65043 -56.11933 604 ft 3 kts 154°
2026-04-25 19:15 -15.65034 -56.11938 604 ft 1 kts 154°
2026-04-25 19:16 -15.65033 -56.11938 604 ft 0 kts 154°
2026-04-25 19:18 -15.65035 -56.11937 604 ft 1 kts 154°
2026-04-25 19:19 -15.65053 -56.11928 604 ft 5 kts 154°
2026-04-25 19:19 -15.65092 -56.11907 604 ft 8 kts 152°
2026-04-25 19:19 -15.65152 -56.11875 604 ft 11 kts 152°
2026-04-25 19:19 -15.65205 -56.11846 604 ft 14 kts 152°
2026-04-25 19:20 -15.65350 -56.11770 603 ft 21 kts 153°
2026-04-25 19:20 -15.65488 -56.11697 603 ft 23 kts 152°
2026-04-25 19:20 -15.65628 -56.11621 603 ft 22 kts 152°
2026-04-25 19:20 -15.65764 -56.11550 603 ft 22 kts 153°
2026-04-25 19:21 -15.65896 -56.11480 603 ft 21 kts 152°
2026-04-25 19:21 -15.66150 -56.11344 603 ft 20 kts 153°
2026-04-25 19:21 -15.66244 -56.11285 603 ft 11 kts 122°
2026-04-25 19:22 -15.66227 -56.11211 600 ft 12 kts 59°
2026-04-25 19:22 -15.66198 -56.11191 599 ft 4 kts 349°
2026-04-25 19:22 -15.66170 -56.11205 599 ft 17 kts 333°
2026-04-25 19:23 -15.65821 -56.11389 598 ft 95 kts 333°
2026-04-25 19:23 -15.63934 -56.12393 1077 ft 179 kts 335°
2026-04-25 19:23 -15.62848 -56.12983 1983 ft 175 kts 333°
2026-04-25 19:24 -15.61752 -56.13579 2687 ft 185 kts 333°
2026-04-25 19:24 -15.60540 -56.14234 3134 ft 209 kts 333°
2026-04-25 19:24 -15.58478 -56.16524 4000 ft 243 kts 279°
2026-04-25 19:25 -15.59751 -56.19685 5490 ft 255 kts 216°
2026-04-25 19:25 -15.61385 -56.20563 5885 ft 279 kts 200°
2026-04-25 19:25 -15.63227 -56.21304 6537 ft 288 kts 202°
2026-04-25 19:26 -15.65039 -56.22127 7391 ft 287 kts 204°
2026-04-25 19:26 -15.66937 -56.22713 8191 ft 290 kts 182°
2026-04-25 19:26 -15.68970 -56.22596 8923 ft 294 kts 173°
2026-04-25 19:26 -15.71016 -56.22387 9724 ft 298 kts 175°
2026-04-25 19:27 -15.73100 -56.22201 10441 ft 302 kts 175°
2026-04-25 19:27 -15.74515 -56.22082 10714 ft 315 kts 176°
2026-04-25 19:27 -15.77590 -56.21841 11045 ft 342 kts 176°
2026-04-25 19:27 -15.80013 -56.21653 11429 ft 357 kts 176°
2026-04-25 19:28 -15.82544 -56.21447 11791 ft 370 kts 176°
2026-04-25 19:28 -15.85102 -56.21240 12647 ft 367 kts 176°
2026-04-25 19:28 -15.87666 -56.20994 13253 ft 373 kts 170°
2026-04-25 19:28 -15.90103 -56.20012 13745 ft 382 kts 146°
2026-04-25 19:29 -15.92043 -56.18145 14291 ft 384 kts 126°
2026-04-25 19:29 -15.93509 -56.15870 14913 ft 384 kts 122°
2026-04-25 19:29 -15.94945 -56.13512 15489 ft 386 kts 121°
2026-04-25 19:29 -15.96390 -56.11149 16058 ft 388 kts 122°
2026-04-25 19:30 -15.97862 -56.08791 16649 ft 389 kts 122°
2026-04-25 19:30 -15.99351 -56.06429 17206 ft 391 kts 122°
2026-04-25 19:30 -16.00847 -56.04064 17737 ft 393 kts 122°
2026-04-25 19:30 -16.02355 -56.01682 18216 ft 395 kts 122°
2026-04-25 19:31 -16.03869 -55.99288 18636 ft 398 kts 122°
2026-04-25 19:31 -16.05392 -55.96877 19043 ft 400 kts 122°
2026-04-25 19:31 -16.06910 -55.94473 19429 ft 403 kts 122°
2026-04-25 19:31 -16.08456 -55.92022 19813 ft 406 kts 122°
2026-04-25 19:32 -16.10012 -55.89556 20195 ft 409 kts 122°
2026-04-25 19:32 -16.11579 -55.87071 20575 ft 412 kts 122°
2026-04-25 19:32 -16.13159 -55.84565 20959 ft 415 kts 122°
2026-04-25 19:32 -16.14214 -55.82890 21205 ft 417 kts 121°
2026-04-25 19:33 -16.16355 -55.79491 21716 ft 421 kts 121°
2026-04-25 19:33 -16.17962 -55.76940 22086 ft 423 kts 121°
2026-04-25 19:33 -16.19580 -55.74368 22454 ft 426 kts 121°
2026-04-25 19:33 -16.21186 -55.71815 22803 ft 428 kts 121°
2026-04-25 19:34 -16.22843 -55.69181 23157 ft 431 kts 121°
2026-04-25 19:34 -16.24469 -55.66596 23495 ft 433 kts 121°
2026-04-25 19:34 -16.26126 -55.63960 23785 ft 436 kts 121°
2026-04-25 19:34 -16.27789 -55.61313 24089 ft 437 kts 121°
2026-04-25 19:35 -16.29455 -55.58660 24399 ft 439 kts 121°
2026-04-25 19:35 -16.31127 -55.55998 24716 ft 440 kts 121°
2026-04-25 19:35 -16.32805 -55.53324 25015 ft 442 kts 121°
2026-04-25 19:35 -16.34487 -55.50644 25312 ft 443 kts 121°
2026-04-25 19:36 -16.36176 -55.47950 25610 ft 445 kts 121°
2026-04-25 19:36 -16.37872 -55.45246 25908 ft 446 kts 121°
2026-04-25 19:36 -16.39573 -55.42531 26185 ft 448 kts 121°
2026-04-25 19:36 -16.41280 -55.39806 26470 ft 449 kts 121°
2026-04-25 19:37 -16.42986 -55.37081 26749 ft 451 kts 121°
2026-04-25 19:37 -16.44684 -55.34369 27023 ft 452 kts 121°
2026-04-25 19:37 -16.46407 -55.31616 27311 ft 454 kts 121°
2026-04-25 19:37 -16.48132 -55.28858 27583 ft 455 kts 121°
2026-04-25 19:38 -16.49862 -55.26092 27809 ft 457 kts 121°
2026-04-25 19:38 -16.51604 -55.23304 28030 ft 460 kts 121°
2026-04-25 19:38 -16.53350 -55.20509 28288 ft 461 kts 121°
2026-04-25 19:38 -16.55100 -55.17706 28551 ft 462 kts 121°
2026-04-25 19:39 -16.56859 -55.14889 28806 ft 463 kts 121°
2026-04-25 19:39 -16.58618 -55.12070 29039 ft 465 kts 121°
2026-04-25 19:39 -16.60384 -55.09240 29273 ft 466 kts 121°
2026-04-25 19:39 -16.62155 -55.06398 29504 ft 468 kts 121°
2026-04-25 19:40 -16.63932 -55.03547 29748 ft 469 kts 121°
2026-04-25 19:40 -16.65713 -55.00689 29951 ft 471 kts 121°
2026-04-25 19:40 -16.67500 -54.97819 30152 ft 472 kts 121°
2026-04-25 19:40 -16.69288 -54.94947 30369 ft 472 kts 121°
2026-04-25 19:41 -16.71073 -54.92080 30639 ft 471 kts 121°
2026-04-25 19:41 -16.72855 -54.89216 30907 ft 470 kts 121°
2026-04-25 19:41 -16.74609 -54.86394 31150 ft 470 kts 121°
2026-04-25 19:41 -16.75211 -54.85426 31242 ft 470 kts 121°
2026-04-25 19:42 -16.78163 -54.80675 31725 ft 469 kts 121°
2026-04-25 19:42 -16.79932 -54.77826 31997 ft 468 kts 121°
2026-04-25 19:42 -16.81705 -54.74971 32270 ft 467 kts 121°
2026-04-25 19:42 -16.83469 -54.72127 32553 ft 467 kts 121°
2026-04-25 19:43 -16.85234 -54.69282 32861 ft 466 kts 121°
2026-04-25 19:43 -16.86990 -54.66448 33136 ft 466 kts 121°
2026-04-25 19:43 -16.88748 -54.63612 33417 ft 465 kts 121°
2026-04-25 19:43 -16.90506 -54.60773 33715 ft 464 kts 121°
2026-04-25 19:44 -16.92257 -54.57946 34000 ft 464 kts 121°
2026-04-25 19:44 -16.94007 -54.55119 34199 ft 464 kts 121°
2026-04-25 19:44 -16.95763 -54.52280 34408 ft 465 kts 121°
2026-04-25 19:44 -16.97516 -54.49446 34681 ft 463 kts 121°
2026-04-25 19:45 -16.99258 -54.46628 34982 ft 461 kts 121°
2026-04-25 19:45 -17.00973 -54.43853 35250 ft 460 kts 121°
2026-04-25 19:45 -17.02706 -54.41048 35475 ft 460 kts 121°
2026-04-25 19:45 -17.04442 -54.38236 35685 ft 460 kts 121°
2026-04-25 19:46 -17.06177 -54.35424 35929 ft 459 kts 121°
2026-04-25 19:46 -17.07903 -54.32627 36177 ft 458 kts 121°
2026-04-25 19:46 -17.09625 -54.29835 36418 ft 457 kts 121°
2026-04-25 19:46 -17.11348 -54.27039 36627 ft 456 kts 121°
2026-04-25 19:47 -17.13065 -54.24252 36848 ft 456 kts 121°
2026-04-25 19:47 -17.14782 -54.21464 37058 ft 455 kts 121°
2026-04-25 19:47 -17.16494 -54.18682 37253 ft 455 kts 121°
2026-04-25 19:47 -17.18186 -54.15933 37453 ft 455 kts 121°
2026-04-25 19:48 -17.19896 -54.13153 37674 ft 454 kts 121°
2026-04-25 19:48 -17.21603 -54.10378 37890 ft 453 kts 121°
2026-04-25 19:48 -17.23308 -54.07603 38081 ft 453 kts 121°
2026-04-25 19:48 -17.25013 -54.04826 38265 ft 452 kts 121°
2026-04-25 19:49 -17.26713 -54.02058 38472 ft 452 kts 121°
2026-04-25 19:49 -17.27287 -54.01124 38532 ft 451 kts 121°
2026-04-25 19:49 -17.30107 -53.96539 38799 ft 450 kts 122°
2026-04-25 19:49 -17.31949 -53.93882 38921 ft 452 kts 126°
2026-04-25 19:50 -17.38041 -53.86269 38937 ft 455 kts 129°
2026-04-25 19:51 -17.42132 -53.81200 38938 ft 455 kts 128°
2026-04-25 19:51 -17.46170 -53.76095 38934 ft 455 kts 128°
2026-04-25 19:52 -17.50163 -53.70999 38935 ft 455 kts 127°
2026-04-25 19:52 -17.54175 -53.65864 38937 ft 455 kts 127°
2026-04-25 19:53 -17.58180 -53.60736 38938 ft 455 kts 127°
2026-04-25 19:53 -17.62185 -53.55606 38933 ft 454 kts 127°
2026-04-25 19:54 -17.66188 -53.50477 38937 ft 454 kts 127°
2026-04-25 19:54 -17.70185 -53.45350 38938 ft 454 kts 127°
2026-04-25 19:55 -17.74181 -53.40222 38945 ft 454 kts 127°
2026-04-25 19:55 -17.78178 -53.35088 38942 ft 454 kts 127°
2026-04-25 19:56 -17.82169 -53.29957 38945 ft 454 kts 128°
2026-04-25 19:56 -17.86163 -53.24818 38956 ft 454 kts 128°
2026-04-25 19:57 -17.90157 -53.19676 38955 ft 454 kts 128°
2026-04-25 19:57 -17.94126 -53.14561 38959 ft 455 kts 128°
2026-04-25 19:58 -17.98126 -53.09404 38958 ft 455 kts 128°
2026-04-25 19:58 -18.02126 -53.04241 38961 ft 455 kts 127°
2026-04-25 19:59 -18.06125 -52.99076 38960 ft 455 kts 128°
2026-04-25 19:59 -18.10100 -52.93937 38958 ft 456 kts 127°
2026-04-25 20:00 -18.14100 -52.88762 38959 ft 456 kts 127°
2026-04-25 20:00 -18.18098 -52.83586 38960 ft 456 kts 127°
2026-04-25 20:01 -18.24097 -52.75811 38947 ft 456 kts 127°
2026-04-25 20:01 -18.28073 -52.70654 38953 ft 456 kts 127°
2026-04-25 20:02 -18.32078 -52.65454 38951 ft 456 kts 127°
2026-04-25 20:02 -18.36079 -52.60254 38950 ft 457 kts 127°
2026-04-25 20:03 -18.40080 -52.55051 38950 ft 457 kts 127°
2026-04-25 20:03 -18.44054 -52.49879 38949 ft 457 kts 127°
2026-04-25 20:04 -18.48054 -52.44668 38942 ft 457 kts 127°
2026-04-25 20:04 -18.52056 -52.39451 38947 ft 457 kts 127°
2026-04-25 20:05 -18.56059 -52.34227 38942 ft 458 kts 127°
2026-04-25 20:05 -18.60034 -52.29037 38943 ft 458 kts 127°
2026-04-25 20:06 -18.64040 -52.23801 38942 ft 458 kts 127°
2026-04-25 20:06 -18.68045 -52.18562 38935 ft 459 kts 127°
2026-04-25 20:07 -18.71375 -52.14203 38939 ft 459 kts 127°
2026-04-25 20:07 -18.75380 -52.08956 38938 ft 460 kts 127°
2026-04-25 20:08 -18.79395 -52.03692 38941 ft 460 kts 127°
2026-04-25 20:08 -18.83409 -51.98425 38939 ft 461 kts 127°
2026-04-25 20:09 -18.87428 -51.93146 38929 ft 461 kts 128°
2026-04-25 20:09 -18.91449 -51.87861 38936 ft 461 kts 128°
2026-04-25 20:10 -18.95467 -51.82574 38934 ft 462 kts 128°
2026-04-25 20:10 -18.99492 -51.77275 38935 ft 462 kts 128°
2026-04-25 20:11 -19.03517 -51.71971 38932 ft 462 kts 128°
2026-04-25 20:11 -19.07541 -51.66664 38936 ft 462 kts 128°
2026-04-25 20:12 -19.11566 -51.61350 38929 ft 463 kts 128°
2026-04-25 20:12 -19.14908 -51.56935 38930 ft 462 kts 128°
2026-04-25 20:13 -19.19575 -51.50763 38929 ft 462 kts 128°
2026-04-25 20:13 -19.23587 -51.45453 38925 ft 462 kts 128°
2026-04-25 20:14 -19.27601 -51.40135 38922 ft 462 kts 128°
2026-04-25 20:14 -19.31609 -51.34821 38929 ft 461 kts 128°
2026-04-25 20:15 -19.35611 -51.29511 38925 ft 461 kts 128°
2026-04-25 20:15 -19.39615 -51.24192 38927 ft 461 kts 128°
2026-04-25 20:16 -19.43595 -51.18902 38926 ft 461 kts 128°
2026-04-25 20:16 -19.47595 -51.13578 38921 ft 462 kts 129°
2026-04-25 20:17 -19.51595 -51.08252 38929 ft 462 kts 129°
2026-04-25 20:17 -19.55573 -51.02950 38927 ft 463 kts 128°
2026-04-25 20:18 -19.59584 -50.97599 38927 ft 463 kts 128°
2026-04-25 20:18 -19.63604 -50.92232 38927 ft 464 kts 128°
2026-04-25 20:19 -19.67623 -50.86860 38923 ft 466 kts 129°
2026-04-25 20:19 -19.71656 -50.81465 38929 ft 466 kts 129°
2026-04-25 20:20 -19.75692 -50.76061 38930 ft 467 kts 129°
2026-04-25 20:20 -19.79708 -50.70680 38930 ft 468 kts 129°
2026-04-25 20:21 -19.83755 -50.65251 38931 ft 469 kts 129°
2026-04-25 20:21 -19.87804 -50.59815 38933 ft 469 kts 129°
2026-04-25 20:22 -19.91172 -50.55289 38937 ft 470 kts 129°
2026-04-25 20:22 -19.95909 -50.48918 38938 ft 470 kts 129°
2026-04-25 20:23 -19.99962 -50.43460 38934 ft 470 kts 129°
2026-04-25 20:23 -20.04007 -50.38009 38937 ft 469 kts 129°
2026-04-25 20:24 -20.08047 -50.32559 38935 ft 469 kts 129°
2026-04-25 20:24 -20.12174 -50.27188 38929 ft 467 kts 136°
2026-04-25 20:25 -20.16867 -50.22476 38937 ft 466 kts 139°
2026-04-25 20:25 -20.21670 -50.17848 38938 ft 465 kts 139°
2026-04-25 20:26 -20.26448 -50.13186 38944 ft 465 kts 139°
2026-04-25 20:26 -20.31198 -50.08491 38941 ft 465 kts 139°
2026-04-25 20:27 -20.35929 -50.03788 38943 ft 465 kts 139°
2026-04-25 20:27 -20.40632 -49.99107 38944 ft 465 kts 139°
2026-04-25 20:28 -20.45369 -49.94391 38947 ft 466 kts 139°
2026-04-25 20:28 -20.50105 -49.89673 38949 ft 466 kts 139°
2026-04-25 20:29 -20.54844 -49.84948 38950 ft 466 kts 139°
2026-04-25 20:29 -20.59590 -49.80211 38951 ft 467 kts 139°
2026-04-25 20:30 -20.64308 -49.75498 38960 ft 467 kts 139°
2026-04-25 20:30 -20.69062 -49.70745 38957 ft 468 kts 140°
2026-04-25 20:31 -20.73818 -49.65987 38970 ft 469 kts 139°
2026-04-25 20:31 -20.78580 -49.61217 38980 ft 469 kts 139°
2026-04-25 20:32 -20.83341 -49.56445 38982 ft 469 kts 139°
2026-04-25 20:32 -20.88107 -49.51662 38984 ft 469 kts 140°
2026-04-25 20:33 -20.92837 -49.46911 38992 ft 469 kts 140°
2026-04-25 20:33 -20.96831 -49.42897 38983 ft 470 kts 140°
2026-04-25 20:34 -21.02369 -49.37325 38976 ft 470 kts 140°
2026-04-25 20:34 -21.07121 -49.32539 38953 ft 466 kts 140°
2026-04-25 20:35 -21.11802 -49.27818 38941 ft 459 kts 140°
2026-04-25 20:35 -21.16406 -49.23173 38946 ft 456 kts 140°
2026-04-25 20:36 -21.21020 -49.18515 38951 ft 453 kts 140°
2026-04-25 20:36 -21.25604 -49.13883 38959 ft 455 kts 140°
2026-04-25 20:37 -21.30247 -49.09189 38962 ft 462 kts 140°
2026-04-25 20:37 -21.34959 -49.04420 38962 ft 467 kts 140°
2026-04-25 20:38 -21.39677 -48.99637 38956 ft 469 kts 140°
2026-04-25 20:38 -21.44379 -48.94863 38938 ft 460 kts 140°
2026-04-25 20:39 -21.49015 -48.90153 38956 ft 458 kts 140°
2026-04-25 20:39 -21.52087 -48.87032 38959 ft 458 kts 140°
2026-04-25 20:40 -21.58274 -48.80743 38968 ft 462 kts 140°
2026-04-25 20:40 -21.62986 -48.75948 38970 ft 470 kts 140°
2026-04-25 20:41 -21.67762 -48.71082 38967 ft 477 kts 140°
2026-04-25 20:41 -21.72582 -48.66162 38948 ft 475 kts 140°
2026-04-25 20:42 -21.77320 -48.61318 38950 ft 466 kts 140°
2026-04-25 20:42 -21.81985 -48.56549 38961 ft 465 kts 140°
2026-04-25 20:43 -21.86681 -48.51747 38961 ft 466 kts 140°
2026-04-25 20:43 -21.91377 -48.46939 38963 ft 466 kts 140°
2026-04-25 20:44 -21.96084 -48.42114 38971 ft 467 kts 140°
2026-04-25 20:44 -22.00802 -48.37274 38968 ft 469 kts 139°
2026-04-25 20:45 -22.03179 -48.34834 38569 ft 477 kts 139°
2026-04-25 20:45 -22.05584 -48.32364 38009 ft 476 kts 139°
2026-04-25 20:45 -22.07983 -48.29898 37436 ft 475 kts 139°
2026-04-25 20:45 -22.10373 -48.27439 36874 ft 474 kts 139°
2026-04-25 20:46 -22.12755 -48.24987 36339 ft 473 kts 139°
2026-04-25 20:46 -22.15085 -48.22586 35917 ft 464 kts 139°
2026-04-25 20:46 -22.17398 -48.20201 35380 ft 457 kts 139°
2026-04-25 20:46 -22.19688 -48.17841 34704 ft 454 kts 140°
2026-04-25 20:47 -22.21969 -48.15491 33999 ft 453 kts 140°
2026-04-25 20:47 -22.24248 -48.13142 33317 ft 450 kts 140°
2026-04-25 20:47 -22.26507 -48.10811 32865 ft 448 kts 140°
2026-04-25 20:47 -22.28755 -48.08491 32442 ft 446 kts 140°
2026-04-25 20:48 -22.30990 -48.06182 32045 ft 443 kts 140°
2026-04-25 20:48 -22.33210 -48.03889 31649 ft 440 kts 140°
2026-04-25 20:48 -22.35416 -48.01608 31260 ft 438 kts 140°
2026-04-25 20:48 -22.37611 -47.99337 30957 ft 433 kts 140°
2026-04-25 20:49 -22.39801 -47.97073 30749 ft 442 kts 140°
2026-04-25 20:49 -22.42062 -47.94737 30542 ft 457 kts 140°
2026-04-25 20:49 -22.44379 -47.92340 30322 ft 464 kts 140°
2026-04-25 20:49 -22.46706 -47.89924 30073 ft 462 kts 139°
2026-04-25 20:50 -22.48900 -47.87420 29664 ft 457 kts 134°
2026-04-25 20:50 -22.50918 -47.84787 29237 ft 453 kts 132°
2026-04-25 20:50 -22.52848 -47.82160 28780 ft 449 kts 131°
2026-04-25 20:50 -22.54592 -47.79766 28381 ft 446 kts 131°
2026-04-25 20:51 -22.56511 -47.77147 27947 ft 440 kts 131°
2026-04-25 20:51 -22.58377 -47.74623 27849 ft 420 kts 132°
2026-04-25 20:51 -22.60187 -47.72192 27478 ft 408 kts 133°
2026-04-25 20:51 -22.61968 -47.69815 26847 ft 406 kts 133°
2026-04-25 20:52 -22.63746 -47.67451 26217 ft 404 kts 132°
2026-04-25 20:52 -22.64342 -47.66658 26023 ft 402 kts 132°
2026-04-25 20:52 -22.67254 -47.62780 25143 ft 395 kts 132°
2026-04-25 20:52 -22.68976 -47.60483 24628 ft 391 kts 132°
2026-04-25 20:53 -22.70679 -47.58210 24165 ft 387 kts 132°
2026-04-25 20:53 -22.72375 -47.55947 23761 ft 387 kts 132°
2026-04-25 20:53 -22.74069 -47.53684 23350 ft 386 kts 132°
2026-04-25 20:53 -22.75757 -47.51428 22945 ft 384 kts 132°
2026-04-25 20:54 -22.77436 -47.49182 22571 ft 382 kts 132°
2026-04-25 20:54 -22.79096 -47.46959 22232 ft 378 kts 132°
2026-04-25 20:54 -22.80745 -47.44750 21874 ft 376 kts 132°
2026-04-25 20:54 -22.82365 -47.42578 21521 ft 374 kts 131°
2026-04-25 20:55 -22.83992 -47.40397 21057 ft 372 kts 131°
2026-04-25 20:55 -22.85604 -47.38233 20691 ft 363 kts 131°
2026-04-25 20:55 -22.87174 -47.36123 20341 ft 357 kts 131°
2026-04-25 20:55 -22.88734 -47.34028 19998 ft 357 kts 131°
2026-04-25 20:56 -22.90291 -47.31938 19670 ft 356 kts 131°
2026-04-25 20:56 -22.91845 -47.29850 19326 ft 355 kts 131°
2026-04-25 20:56 -22.93397 -47.27764 18988 ft 355 kts 131°
2026-04-25 20:56 -22.94944 -47.25683 18656 ft 355 kts 131°
2026-04-25 20:57 -22.96491 -47.23601 18322 ft 354 kts 131°
2026-04-25 20:57 -22.98036 -47.21523 17951 ft 353 kts 131°
2026-04-25 20:57 -22.99572 -47.19453 17609 ft 351 kts 131°
2026-04-25 20:57 -23.00584 -47.18091 17388 ft 349 kts 131°
2026-04-25 20:58 -23.02284 -47.16253 17037 ft 343 kts 149°
2026-04-25 20:58 -23.04380 -47.15118 16775 ft 332 kts 167°
2026-04-25 20:58 -23.06603 -47.14558 16518 ft 325 kts 172°
2026-04-25 20:58 -23.08812 -47.14099 16246 ft 322 kts 173°
2026-04-25 20:59 -23.11007 -47.13651 15972 ft 318 kts 172°
2026-04-25 20:59 -23.13180 -47.13198 15718 ft 319 kts 172°
2026-04-25 20:59 -23.15363 -47.12732 15463 ft 320 kts 172°
2026-04-25 20:59 -23.17552 -47.12258 15189 ft 320 kts 171°
2026-04-25 21:00 -23.19710 -47.11785 14923 ft 321 kts 171°
2026-04-25 21:00 -23.21189 -47.11459 14729 ft 321 kts 171°
2026-04-25 21:00 -23.26285 -47.10331 14115 ft 316 kts 169°
2026-04-25 21:01 -23.28301 -47.09438 13719 ft 322 kts 147°
2026-04-25 21:01 -23.30022 -47.07895 13402 ft 320 kts 141°
2026-04-25 21:01 -23.31678 -47.06287 13104 ft 317 kts 140°
2026-04-25 21:01 -23.33334 -47.04677 12826 ft 314 kts 141°
2026-04-25 21:02 -23.34940 -47.03130 12548 ft 311 kts 141°
2026-04-25 21:02 -23.36559 -47.01585 12283 ft 308 kts 141°
2026-04-25 21:02 -23.38166 -47.00063 12016 ft 305 kts 141°
2026-04-25 21:02 -23.39760 -46.98558 11755 ft 301 kts 141°
2026-04-25 21:03 -23.41341 -46.97071 11502 ft 298 kts 141°
2026-04-25 21:03 -23.42901 -46.95604 11240 ft 295 kts 141°
2026-04-25 21:03 -23.44448 -46.94150 10991 ft 292 kts 141°
2026-04-25 21:03 -23.45965 -46.92725 10914 ft 283 kts 141°
2026-04-25 21:04 -23.47430 -46.91347 10844 ft 273 kts 142°
2026-04-25 21:04 -23.48832 -46.90030 10715 ft 267 kts 142°
2026-04-25 21:04 -23.50215 -46.88729 10633 ft 258 kts 142°
2026-04-25 21:04 -23.51563 -46.87462 10494 ft 253 kts 142°
2026-04-25 21:05 -23.52891 -46.86215 10250 ft 252 kts 142°
2026-04-25 21:05 -23.54219 -46.84967 10061 ft 251 kts 142°
2026-04-25 21:05 -23.55536 -46.83729 9818 ft 250 kts 142°
2026-04-25 21:05 -23.56859 -46.82511 9544 ft 249 kts 147°
2026-04-25 21:06 -23.58302 -46.81481 9283 ft 247 kts 151°
2026-04-25 21:06 -23.59764 -46.80506 9115 ft 246 kts 151°
2026-04-25 21:06 -23.61218 -46.79525 9078 ft 246 kts 150°
2026-04-25 21:06 -23.62179 -46.78868 9073 ft 245 kts 150°
2026-04-25 21:07 -23.64080 -46.77559 9086 ft 236 kts 150°
2026-04-25 21:07 -23.65445 -46.76616 8920 ft 230 kts 150°
2026-04-25 21:07 -23.66758 -46.75708 8740 ft 223 kts 150°
2026-04-25 21:07 -23.68059 -46.74806 8559 ft 220 kts 150°
2026-04-25 21:08 -23.69332 -46.73925 8397 ft 213 kts 150°
2026-04-25 21:08 -23.70572 -46.73065 8229 ft 209 kts 150°
2026-04-25 21:08 -23.71777 -46.72229 8074 ft 202 kts 151°
2026-04-25 21:08 -23.72961 -46.71408 7919 ft 201 kts 151°
2026-04-25 21:09 -23.75327 -46.69768 7620 ft 202 kts 151°
2026-04-25 21:09 -23.76512 -46.68949 7466 ft 201 kts 151°
2026-04-25 21:09 -23.77695 -46.68135 7310 ft 201 kts 151°
2026-04-25 21:10 -23.78875 -46.67318 7148 ft 200 kts 151°
2026-04-25 21:10 -23.80044 -46.66502 6993 ft 199 kts 151°
2026-04-25 21:10 -23.81205 -46.65692 6842 ft 197 kts 151°
2026-04-25 21:10 -23.82347 -46.64900 6698 ft 196 kts 151°
2026-04-25 21:11 -23.83496 -46.64103 6549 ft 195 kts 151°
2026-04-25 21:11 -23.84637 -46.63310 6393 ft 194 kts 151°
2026-04-25 21:11 -23.85771 -46.62521 6256 ft 191 kts 151°
2026-04-25 21:11 -23.86876 -46.61747 6254 ft 189 kts 151°
2026-04-25 21:12 -23.87996 -46.60965 6274 ft 193 kts 151°
2026-04-25 21:12 -23.89143 -46.60166 6277 ft 196 kts 151°
2026-04-25 21:12 -23.90283 -46.59371 6206 ft 192 kts 151°
2026-04-25 21:12 -23.90996 -46.58872 5982 ft 191 kts 151°
2026-04-25 21:13 -23.92418 -46.57704 5835 ft 192 kts 126°
2026-04-25 21:13 -23.92797 -46.56310 5858 ft 197 kts 85°
2026-04-25 21:13 -23.92367 -46.54898 5868 ft 199 kts 60°
2026-04-25 21:13 -23.91697 -46.53566 5842 ft 199 kts 58°
2026-04-25 21:14 -23.91020 -46.52258 5827 ft 196 kts 58°
2026-04-25 21:14 -23.90356 -46.50976 5891 ft 196 kts 58°
2026-04-25 21:14 -23.89609 -46.49701 5886 ft 197 kts 41°
2026-04-25 21:14 -23.88458 -46.49062 5917 ft 187 kts
2026-04-25 21:15 -23.87581 -46.48976 5889 ft 189 kts 359°
2026-04-25 21:15 -23.85966 -46.49408 5762 ft 179 kts 321°
2026-04-25 21:15 -23.84937 -46.50165 5707 ft 178 kts 324°
2026-04-25 21:15 -23.83890 -46.50890 5638 ft 178 kts 324°
2026-04-25 21:16 -23.82843 -46.51614 5579 ft 178 kts 324°
2026-04-25 21:16 -23.81800 -46.52339 5526 ft 178 kts 324°
2026-04-25 21:16 -23.80752 -46.53068 5472 ft 179 kts 324°
2026-04-25 21:16 -23.79699 -46.53801 5407 ft 180 kts 325°
2026-04-25 21:17 -23.78639 -46.54540 5301 ft 180 kts 325°
2026-04-25 21:17 -23.77592 -46.55269 5225 ft 177 kts 324°
2026-04-25 21:17 -23.76554 -46.55992 5170 ft 177 kts 325°
2026-04-25 21:17 -23.75509 -46.56716 5108 ft 179 kts 326°
2026-04-25 21:18 -23.74461 -46.57445 5040 ft 178 kts 325°
2026-04-25 21:18 -23.73415 -46.58172 4900 ft 179 kts 325°
2026-04-25 21:18 -23.72378 -46.58892 4677 ft 172 kts 325°
2026-04-25 21:18 -23.71415 -46.59560 4494 ft 156 kts 325°
2026-04-25 21:19 -23.70520 -46.60184 4289 ft 151 kts 325°
2026-04-25 21:19 -23.69619 -46.60813 4097 ft 156 kts 325°
2026-04-25 21:19 -23.68700 -46.61453 3891 ft 157 kts 326°
2026-04-25 21:19 -23.67783 -46.62089 3686 ft 155 kts 325°
2026-04-25 21:20 -23.66873 -46.62723 3486 ft 155 kts 325°
2026-04-25 21:20 -23.66271 -46.63142 3355 ft 156 kts 326°
2026-04-25 21:20 -23.65049 -46.63993 3054 ft 155 kts 326°
2026-04-25 21:20 -23.64143 -46.64623 2857 ft 154 kts 326°
2026-04-25 21:21 -23.63241 -46.65252 2654 ft 153 kts 327°
2026-04-25 21:21 -23.62503 -46.65760 2614 ft 75 kts 327°
2026-04-25 21:21 -23.62252 -46.65934 2604 ft 26 kts 327°
2026-04-25 21:21 -23.62203 -46.66017 2602 ft 10 kts 245°
2026-04-25 21:22 -23.62247 -46.66039 2603 ft 6 kts 171°
2026-04-25 21:22 -23.62286 -46.66018 2604 ft 6 kts 147°
2026-04-25 21:22 -23.62323 -46.65992 2605 ft 6 kts 147°
2026-04-25 21:22 -23.62358 -46.65968 2606 ft 6 kts 147°
2026-04-25 21:23 -23.62393 -46.65944 2607 ft 6 kts 147°
2026-04-25 21:23 -23.62427 -46.65920 2609 ft 6 kts 147°
2026-04-25 21:23 -23.62466 -46.65893 2610 ft 7 kts 147°
2026-04-25 21:23 -23.62509 -46.65863 2612 ft 9 kts 147°
2026-04-25 21:24 -23.62547 -46.65837 2614 ft 0 kts 148°
2026-04-25 21:24 -23.62559 -46.65834 2614 ft 3 kts 175°
2026-04-25 21:24 -23.62576 -46.65855 2614 ft 4 kts 237°
2026-04-25 21:24 -23.62590 -46.65880 2614 ft 4 kts 238°
2026-04-25 21:25 -23.62600 -46.65897 2614 ft 2 kts 238°
2026-04-25 21:25 -23.62602 -46.65900 2614 ft 0 kts 238°